This is the latest recevied weather packets stored in our database for station/object KC4JES. If no packets are shown the sender has not sent any weather packets the latest 10 day(s).
| Time | Temp. | Humidity | Pressure | Rain* | Wind** | Luminosity | Snow |
|---|---|---|---|---|---|---|---|
| 1778002758 | 26.67° C | 51% | 1018.2 hPa | 0 mm | - | 987 W/m² | - |
| 1778002454 | 26.67° C | 52% | 1018.1 hPa | 0 mm | - | 991 W/m² | - |
| 1778002151 | 27.22° C | 50% | 1018 hPa | 0 mm | - | 1002 W/m² | - |
| 1778001850 | 26.67° C | 50% | 1018.1 hPa | 0 mm | - | 1005 W/m² | - |
| 1778001549 | 26.67° C | 49% | 1018.3 hPa | 0 mm | - | 108 W/m² | - |
| 1778001246 | 26.11° C | 54% | 1018.3 hPa | 0 mm | - | 77 W/m² | - |
| 1778000943 | 26.67° C | 51% | 1018.3 hPa | 0 mm | - | 72 W/m² | - |
| 1778000640 | 26.67° C | 52% | 1018.5 hPa | 0 mm | - | 66 W/m² | - |
| 1778000335 | 26.11° C | 54% | 1018.5 hPa | 0 mm | - | 60 W/m² | - |
| 1778000030 | 26.11° C | 55% | 1018.4 hPa | 0 mm | - | 82 W/m² | - |
| 1777999726 | 26.11° C | 54% | 1018.4 hPa | 0 mm | - | 106 W/m² | - |
| 1777999423 | 26.11° C | 55% | 1018.6 hPa | 0 mm | - | 108 W/m² | - |
| 1777999121 | 26.67° C | 55% | 1018.4 hPa | 0 mm | - | 145 W/m² | - |
| 1777998820 | 26.67° C | 52% | 1018.6 hPa | 0 mm | - | 129 W/m² | - |
| 1777998518 | 26.11° C | 53% | 1018.6 hPa | 0 mm | - | 115 W/m² | - |
| 1777998214 | 25.56° C | 55% | 1018.5 hPa | 0 mm | - | 110 W/m² | - |
| 1777997911 | 25.56° C | 56% | 1018.6 hPa | 0 mm | - | 96 W/m² | - |
| 1777997608 | 25.56° C | 52% | 1018.5 hPa | 0 mm | - | 71 W/m² | - |
| 1777997305 | 26.11° C | 56% | 1018.6 hPa | 0 mm | - | 71 W/m² | - |
| 1777997004 | 26.11° C | 55% | 1018.7 hPa | 0 mm | - | 70 W/m² | - |
| 1777996700 | 25.56° C | 57% | 1018.6 hPa | 0 mm | - | 57 W/m² | - |
| 1777996395 | 25.56° C | 58% | 1018.6 hPa | 0 mm | - | 66 W/m² | - |
| 1777996092 | 26.11° C | 53% | 1018.4 hPa | 0 mm | - | 76 W/m² | - |
| 1777995789 | 26.11° C | 55% | 1018.5 hPa | 0 mm | - | 73 W/m² | - |
| 1777995485 | 25.56° C | 54% | 1018.5 hPa | 0 mm | - | 72 W/m² | - |
* Rain latest hour (hover to see other rain measurements)
** Current wind speed in m/s (hover to see current wind gust speed)